Weather History for New York, NY

Change the Weather History Date:

Saturday, October 13, 2012

  Actual Average Record
Temperature  
Mean Temperature 48 °F 59 °F  
Max Temperature 54 °F 66 °F 86 °F (1954)
Min Temperature 42 °F 52 °F 39 °F (1988)
Degree Days  
Heating Degree Days 17 7  
Month to date heating degree days 78 67  
Since 1 July heating degree days 87 102  
Cooling Degree Days 0 1  
Month to date cooling degree days 24 18  
Year to date cooling degree days 1508 1208  
Moisture  
Dew Point 28 °F    
Average Humidity 46    
Maximum Humidity 64    
Minimum Humidity 28    
Precipitation  
Precipitation 0.00 in 0.12 in 1.63 in (2005)
Month to date precipitation 0.85 1.62  
Year to date precipitation 29.52 35.60  
Snow  
Snow 0.00 in 0.00 in - ()
Month to date snowfall 0.0 0.0  
Since 1 July snowfall 0.0 0.0  
Snow Depth 0.00 in    
Sea Level Pressure  
Sea Level Pressure 30.44 in    
Wind  
Wind Speed 8 mph (SSW)    
Max Wind Speed 16 mph    
Max Gust Speed 23 mph    
Visibility 10 miles    
Events      
T = Trace of Precipitation, MM = Missing Value Source: NWS Daily Summary

Daily Weather History Graph

Daily Weather History Graph

Search for Another Location

Airport:

Trip Planner

Search our weather history database for the weather conditions in past years. The results will help you decide how hot, cold, wet, or windy it might be!

Date:

Astronomy

Oct. 13, 2012 Rise Set
Actual Time 7:05 AM EDT 6:17 PM EDT
Civil Twilight 6:37 AM EDT 6:45 PM EDT
Nautical Twilight 6:05 AM EDT 7:16 PM EDT
Astronomical Twilight 5:34 AM EDT 7:48 PM EDT
Moon 4:51 AM EDT (10/13) 5:00 PM EDT (10/13)
Length of Visible Light 12h 07m
Length of Day
11h 12m
Waning Crescent, 5% of the Moon is Illuminated
Oct 13
Waning Crescent
Oct 15
New
Oct 21
First Quarter
Oct 29
Full
Nov 6
Last Quarter

Hourly Weather History & Observations

Time (EDT) Temp. Windchill Dew Point Humidity Pressure Visibility Wind Dir Wind Speed Gust Speed Precip Events Conditions
12:51 AM 44.6 °F 39.7 °F 26.6 °F 49% 30.43 in 10.0 mi North 9.2 mph - N/A   Clear
2:51 AM 42.8 °F 39.3 °F 26.6 °F 53% 30.45 in 10.0 mi NNE 5.8 mph - N/A   Clear
3:51 AM 43.0 °F 38.2 °F 26.1 °F 51% 30.46 in 10.0 mi North 8.1 mph - N/A   Clear
4:51 AM 42.1 °F 37.7 °F 25.0 °F 51% 30.48 in 10.0 mi North 6.9 mph - N/A   Clear
5:51 AM 42.1 °F 37.7 °F 26.1 °F 53% 30.47 in 10.0 mi North 6.9 mph - N/A   Clear
6:51 AM 42.8 °F 38.6 °F 26.6 °F 53% 30.49 in 10.0 mi North 6.9 mph - N/A   Clear
7:51 AM 43.0 °F 40.3 °F 25.0 °F 49% 30.51 in 10.0 mi North 4.6 mph - N/A   Clear
8:51 AM 45.0 °F - 21.0 °F 39% 30.52 in 10.0 mi Calm Calm - N/A   Partly Cloudy
9:51 AM 46.9 °F - 25.0 °F 42% 30.52 in 10.0 mi NE 3.5 mph - N/A   Partly Cloudy
10:51 AM 48.0 °F - 24.1 °F 39% 30.52 in 10.0 mi NNE 5.8 mph - N/A   Partly Cloudy
11:51 AM 48.9 °F - 21.0 °F 33% 30.51 in 10.0 mi Calm Calm - N/A   Partly Cloudy
12:51 PM 51.1 °F - 24.1 °F 35% 30.48 in 10.0 mi Calm Calm - N/A   Partly Cloudy
1:51 PM 53.1 °F - 21.9 °F 30% 30.43 in 10.0 mi Variable 5.8 mph - N/A   Partly Cloudy
2:51 PM 52.0 °F - 23.0 °F 32% 30.41 in 10.0 mi SW 9.2 mph - N/A   Partly Cloudy
3:51 PM 53.1 °F - 21.9 °F 30% 30.40 in 10.0 mi South 10.4 mph - N/A   Scattered Clouds
4:51 PM 52.0 °F - 27.0 °F 38% 30.38 in 10.0 mi South 10.4 mph - N/A   Scattered Clouds
5:51 PM 50.0 °F - 32.0 °F 50% 30.40 in 10.0 mi South 11.5 mph - N/A   Scattered Clouds
6:51 PM 50.0 °F - 34.0 °F 54% 30.38 in 10.0 mi South 8.1 mph - N/A   Mostly Cloudy
7:51 PM 51.8 °F - 35.6 °F 54% 30.37 in 10.0 mi South 11.5 mph - N/A   Mostly Cloudy
8:51 PM 53.1 °F - 36.0 °F 52% 30.36 in 10.0 mi SSW 16.1 mph 23.0 mph N/A   Mostly Cloudy
9:51 PM 53.1 °F - 37.9 °F 57% 30.35 in 10.0 mi SW 11.5 mph - N/A   Mostly Cloudy
10:51 PM 53.1 °F - 39.9 °F 61% 30.34 in 10.0 mi SW 12.7 mph - N/A   Mostly Cloudy
11:51 PM 53.6 °F - 41.0 °F 62% 30.31 in 10.0 mi SSW 10.4 mph - N/A   Mostly Cloudy